Radiation Dose at Monitoring Post of Fukushima Daini Nuclear Power Station
Date,Time,MP-1(microSv/h),MP-2(microSv/h),MP-3(microSv/h),MP-4(microSv/h),MP-5(microSv/h),MP-6(microSv/h),MP-7(microSv/h),Wind Direction,Wind Velocity(m/s),Rain
2018/09/25,00:00,0.305,0.188,0.303,0.296,0.282,0.151,0.094,west-northwest,4.0,No
2018/09/25,00:10,0.303,0.188,0.305,0.293,0.279,0.153,0.093,northwest,3.6,No
2018/09/25,00:20,0.305,0.189,0.305,0.295,0.282,0.151,0.094,north-northwest,3.6,No
2018/09/25,00:30,0.304,0.188,0.303,0.295,0.282,0.152,0.094,north-northwest,2.7,No
2018/09/25,00:40,0.302,0.189,0.306,0.293,0.279,0.153,0.093,northwest,1.2,No
2018/09/25,00:50,0.305,0.188,0.304,0.297,0.282,0.151,0.094,northwest,2.6,No
2018/09/25,01:00,0.304,0.189,0.303,0.293,0.281,0.151,0.093,north-northwest,1.5,No
2018/09/25,01:10,0.306,0.188,0.305,0.295,0.281,0.152,0.094,north-northwest,1.2,No
2018/09/25,01:20,0.305,0.189,0.302,0.296,0.283,0.153,0.094,west-northwest,1.4,No
2018/09/25,01:30,0.302,0.189,0.306,0.294,0.279,0.152,0.093,northwest,2.2,No
2018/09/25,01:40,0.306,0.188,0.304,0.297,0.282,0.152,0.094,northwest,1.3,No
2018/09/25,01:50,0.303,0.189,0.306,0.293,0.281,0.153,0.093,south-southeast,0.9,No
2018/09/25,02:00,0.304,0.189,0.305,0.295,0.279,0.151,0.094,south-southeast,0.6,No
2018/09/25,02:10,0.305,0.190,0.303,0.296,0.283,0.152,0.095,-,CALM,No
2018/09/25,02:20,0.303,0.188,0.307,0.295,0.280,0.153,0.094,south-southwest,0.7,No
2018/09/25,02:30,0.307,0.190,0.303,0.297,0.280,0.152,0.094,-,CALM,No
2018/09/25,02:40,0.303,0.189,0.306,0.295,0.283,0.152,0.093,east-southeast,0.8,No
2018/09/25,02:50,0.305,0.189,0.307,0.296,0.281,0.152,0.094,east-northeast,0.7,No
2018/09/25,03:00,0.306,0.190,0.305,0.296,0.284,0.153,0.095,north-northeast,1.0,No
2018/09/25,03:10,0.304,0.189,0.306,0.295,0.281,0.153,0.095,north-northeast,1.5,No
2018/09/25,03:20,0.307,0.190,0.304,0.297,0.281,0.152,0.094,north-northeast,2.0,No
2018/09/25,03:30,0.304,0.188,0.307,0.295,0.283,0.153,0.095,north-northeast,1.3,No
2018/09/25,03:40,0.305,0.191,0.305,0.296,0.280,0.152,0.095,north-northwest,1.5,No
2018/09/25,03:50,0.306,0.189,0.305,0.296,0.283,0.153,0.094,north-northwest,3.2,No
2018/09/25,04:00,0.304,0.190,0.306,0.294,0.282,0.154,0.094,north,4.6,No
2018/09/25,04:10,0.308,0.190,0.303,0.297,0.280,0.152,0.095,north,4.8,No
2018/09/25,04:20,0.305,0.189,0.306,0.295,0.284,0.153,0.094,north,4.2,No
2018/09/25,04:30,0.306,0.190,0.303,0.295,0.280,0.152,0.096,north,4.0,No
2018/09/25,04:40,0.305,0.189,0.307,0.296,0.283,0.153,0.094,north-northeast,5.4,No
2018/09/25,04:50,0.303,0.190,0.306,0.295,0.283,0.154,0.095,north,4.7,No
2018/09/25,05:00,0.309,0.189,0.304,0.299,0.280,0.153,0.095,north,4.0,No
2018/09/25,05:10,0.304,0.190,0.307,0.295,0.284,0.154,0.093,north,3.9,No
2018/09/25,05:20,0.305,0.189,0.304,0.296,0.281,0.153,0.095,north-northwest,1.8,No
2018/09/25,05:30,0.306,0.190,0.306,0.295,0.281,0.154,0.095,north,3.6,No
2018/09/25,05:40,0.303,0.191,0.305,0.295,0.283,0.153,0.095,north,5.0,No
2018/09/25,05:50,0.307,0.190,0.305,0.297,0.281,0.153,0.094,north,5.8,No
2018/09/25,06:00,0.304,0.190,0.307,0.294,0.283,0.151,0.094,north,6.9,No
2018/09/25,06:10,0.305,0.190,0.304,0.295,0.282,0.153,0.095,north,7.3,No
2018/09/25,06:20,0.307,0.189,0.307,0.296,0.281,0.152,0.095,north,6.3,No
2018/09/25,06:30,0.302,0.189,0.304,0.294,0.283,0.153,0.094,north,7.9,No
2018/09/25,06:40,0.307,0.188,0.306,0.296,0.282,0.152,0.094,north,8.4,No
2018/09/25,06:50,0.305,0.189,0.305,0.295,0.281,0.152,0.094,north,8.2,No
2018/09/25,07:00,0.304,0.188,0.304,0.294,0.283,0.154,0.094,north,7.4,No
2018/09/25,07:10,0.306,0.188,0.306,0.298,0.281,0.153,0.094,north,8.1,No
2018/09/25,07:20,0.303,0.190,0.306,0.293,0.281,0.152,0.094,north,7.7,No
2018/09/25,07:30,0.302,0.188,0.305,0.295,0.282,0.153,0.094,north,5.4,No
2018/09/25,07:40,0.306,0.188,0.307,0.297,0.279,0.152,0.095,north,4.0,No
2018/09/25,07:50,0.304,0.190,0.305,0.293,0.280,0.151,0.094,north-northeast,2.1,No
2018/09/25,08:00,0.303,0.189,0.303,0.295,0.283,0.153,0.094,north,1.5,No
2018/09/25,08:10,0.307,0.188,0.305,0.295,0.280,0.153,0.095,north,5.4,No
2018/09/25,08:20,0.305,0.189,0.304,0.294,0.279,0.151,0.093,north,5.9,No
2018/09/25,08:30,0.303,0.189,0.305,0.294,0.283,0.152,0.093,north,6.5,No
2018/09/25,08:40,0.305,0.187,0.307,0.297,0.282,0.153,0.094,north,7.0,No
2018/09/25,08:50,0.304,0.189,0.304,0.293,0.279,0.152,0.094,north,5.4,No
2018/09/25,09:00,0.303,0.188,0.305,0.292,0.280,0.152,0.093,north,8.4,No
2018/09/25,09:10,0.306,0.187,0.307,0.296,0.282,0.152,0.092,north,6.6,No
2018/09/25,09:20,0.305,0.188,0.304,0.296,0.280,0.152,0.093,north,7.8,No
2018/09/25,09:30,0.303,0.190,0.304,0.294,0.279,0.153,0.094,north,8.4,No
2018/09/25,09:40,0.305,0.187,0.307,0.296,0.282,0.153,0.093,north,7.7,No
2018/09/25,09:50,0.307,0.189,0.304,0.296,0.281,0.153,0.093,north,9.0,No
2018/09/25,10:00,0.303,0.189,0.303,0.293,0.280,0.151,0.094,north-northeast,10.3,No
2018/09/25,10:10,0.306,0.188,0.305,0.296,0.284,0.152,0.094,north-northeast,10.1,No
2018/09/25,10:20,0.306,0.189,0.303,0.296,0.284,0.153,0.093,north,8.4,No
2018/09/25,10:30,0.304,0.189,0.306,0.294,0.280,0.152,0.094,north,8.4,No
2018/09/25,10:40,0.306,0.189,0.305,0.297,0.284,0.153,0.094,north,9.0,No
2018/09/25,10:50,0.304,0.189,0.304,0.296,0.280,0.153,0.094,north,6.9,No
2018/09/25,11:00,0.308,0.188,0.307,0.294,0.281,0.151,0.093,north,7.9,Yes
2018/09/25,11:10,0.305,0.190,0.305,0.297,0.284,0.152,0.093,north,7.4,Yes
2018/09/25,11:20,0.304,0.188,0.307,0.294,0.279,0.153,0.094,north,8.8,No
2018/09/25,11:30,0.307,0.190,0.305,0.295,0.283,0.151,0.094,north,7.7,No
2018/09/25,11:40,0.303,0.190,0.305,0.297,0.282,0.152,0.093,north,6.5,No
2018/09/25,11:50,0.307,0.190,0.307,0.294,0.280,0.152,0.094,north,8.6,Yes
2018/09/25,12:00,0.308,0.189,0.304,0.297,0.283,0.153,0.095,north,9.3,Yes
2018/09/25,12:10,0.306,0.190,0.307,0.294,0.280,0.154,0.095,north,8.8,Yes
2018/09/25,12:20,0.306,0.191,0.305,0.296,0.284,0.154,0.095,north,9.2,Yes
2018/09/25,12:30,0.306,0.190,0.308,0.297,0.280,0.155,0.096,north-northwest,8.8,Yes
2018/09/25,12:40,0.309,0.192,0.306,0.296,0.284,0.155,0.096,north-northwest,8.5,Yes
2018/09/25,12:50,0.307,0.192,0.310,0.297,0.283,0.156,0.097,north,8.1,Yes
2018/09/25,13:00,0.308,0.193,0.306,0.295,0.284,0.157,0.098,north,7.2,Yes
2018/09/25,13:10,0.305,0.193,0.308,0.296,0.283,0.156,0.099,north,6.1,Yes
2018/09/25,13:20,0.307,0.193,0.303,0.293,0.284,0.156,0.098,north,6.5,Yes
2018/09/25,13:30,0.303,0.192,0.304,0.295,0.283,0.155,0.097,north,7.2,Yes
2018/09/25,13:40,0.306,0.192,0.304,0.292,0.280,0.156,0.098,north,7.7,Yes
2018/09/25,13:50,0.298,0.191,0.306,0.295,0.284,0.154,0.097,north,8.1,Yes
2018/09/25,14:00,0.304,0.190,0.302,0.291,0.279,0.154,0.096,north,7.4,No
2018/09/25,14:10,0.302,0.189,0.303,0.293,0.280,0.153,0.095,north,9.8,Yes
2018/09/25,14:20,0.303,0.190,0.300,0.291,0.279,0.153,0.095,north,9.8,Yes
2018/09/25,14:30,0.302,0.190,0.303,0.292,0.280,0.152,0.095,north,8.6,Yes
2018/09/25,14:40,0.303,0.190,0.300,0.292,0.279,0.154,0.097,north,8.1,Yes
2018/09/25,14:50,0.302,0.190,0.301,0.291,0.282,0.154,0.098,north,6.1,Yes
2018/09/25,15:00,0.300,0.189,0.300,0.290,0.280,0.154,0.099,north-northwest,5.3,Yes
2018/09/25,15:10,0.299,0.190,0.301,0.290,0.282,0.156,0.099,north,8.6,Yes
2018/09/25,15:20,0.302,0.191,0.300,0.291,0.281,0.154,0.099,north-northwest,7.8,Yes
2018/09/25,15:30,0.300,0.192,0.301,0.291,0.283,0.155,0.099,north-northwest,8.1,Yes
2018/09/25,15:40,0.301,0.191,0.298,0.290,0.281,0.155,0.101,northwest,6.4,Yes
2018/09/25,15:50,0.300,0.193,0.302,0.291,0.283,0.156,0.102,north,7.9,Yes
2018/09/25,16:00,0.302,0.194,0.300,0.292,0.284,0.156,0.101,north,7.3,Yes
2018/09/25,16:10,0.301,0.194,0.304,0.291,0.286,0.157,0.104,north-northwest,8.1,Yes
2018/09/25,16:20,0.303,0.194,0.300,0.291,0.283,0.156,0.103,north-northwest,6.4,Yes
2018/09/25,16:30,0.301,0.196,0.302,0.292,0.285,0.158,0.103,north-northwest,8.4,Yes
2018/09/25,16:40,0.301,0.193,0.300,0.289,0.283,0.156,0.102,north,8.2,Yes
2018/09/25,16:50,0.299,0.193,0.301,0.290,0.285,0.156,0.101,north,8.2,Yes
2018/09/25,17:00,0.298,0.192,0.298,0.288,0.283,0.154,0.101,north-northwest,6.8,Yes
2018/09/25,17:10,0.298,0.192,0.298,0.289,0.283,0.154,0.100,north-northwest,7.1,Yes
2018/09/25,17:20,0.300,0.189,0.298,0.287,0.280,0.153,0.099,north-northwest,7.1,Yes
2018/09/25,17:30,0.297,0.190,0.296,0.290,0.283,0.154,0.098,north,6.9,Yes
2018/09/25,17:40,0.299,0.189,0.298,0.287,0.279,0.151,0.098,north,7.6,Yes
2018/09/25,17:50,0.296,0.189,0.296,0.289,0.282,0.152,0.098,north,7.0,Yes
2018/09/25,18:00,0.297,0.189,0.300,0.286,0.281,0.152,0.098,north,7.3,Yes
2018/09/25,18:10,0.297,0.188,0.295,0.288,0.281,0.152,0.097,north,7.9,Yes
2018/09/25,18:20,0.299,0.188,0.297,0.286,0.279,0.152,0.097,north,8.5,Yes
2018/09/25,18:30,0.296,0.188,0.297,0.289,0.281,0.151,0.096,north,8.2,Yes
2018/09/25,18:40,0.297,0.187,0.297,0.285,0.278,0.150,0.096,north,7.9,Yes
2018/09/25,18:50,0.296,0.186,0.296,0.286,0.280,0.150,0.095,north,8.4,No
2018/09/25,19:00,0.296,0.185,0.297,0.284,0.278,0.149,0.096,north,8.4,No
2018/09/25,19:10,0.296,0.185,0.295,0.288,0.278,0.149,0.094,north-northwest,7.9,No
2018/09/25,19:20,0.295,0.184,0.296,0.285,0.277,0.148,0.094,north,9.5,No
2018/09/25,19:30,0.294,0.185,0.295,0.286,0.278,0.148,0.093,north,8.5,No
2018/09/25,19:40,0.294,0.184,0.296,0.283,0.276,0.146,0.093,north,8.6,No
2018/09/25,19:50,0.294,0.184,0.294,0.287,0.276,0.147,0.091,north-northwest,7.8,No
2018/09/25,20:00,0.296,0.184,0.295,0.285,0.277,0.147,0.092,north-northwest,8.1,No
2018/09/25,20:10,0.294,0.184,0.295,0.286,0.275,0.146,0.091,north-northwest,7.6,No
2018/09/25,20:20,0.295,0.184,0.294,0.286,0.277,0.146,0.091,north-northwest,7.9,Yes
2018/09/25,20:30,0.295,0.184,0.296,0.288,0.277,0.147,0.092,north-northwest,7.4,Yes
2018/09/25,20:40,0.295,0.185,0.295,0.285,0.278,0.146,0.092,north-northwest,8.4,No
2018/09/25,20:50,0.297,0.184,0.296,0.286,0.276,0.147,0.093,north-northwest,8.8,No
2018/09/25,21:00,0.295,0.186,0.295,0.285,0.278,0.147,0.092,north-northwest,9.5,No
2018/09/25,21:10,0.298,0.184,0.295,0.286,0.275,0.147,0.092,north-northwest,9.8,No
2018/09/25,21:20,0.296,0.185,0.296,0.286,0.278,0.146,0.092,north-northwest,9.5,No
2018/09/25,21:30,0.297,0.183,0.296,0.285,0.276,0.147,0.092,north-northwest,9.5,No
2018/09/25,21:40,0.295,0.185,0.294,0.288,0.279,0.146,0.092,north-northwest,9.2,No
2018/09/25,21:50,0.295,0.183,0.296,0.284,0.276,0.147,0.091,north-northwest,10.4,No
2018/09/25,22:00,0.296,0.185,0.297,0.287,0.278,0.146,0.092,north-northwest,10.4,No
2018/09/25,22:10,0.296,0.184,0.295,0.285,0.275,0.147,0.092,north-northwest,9.8,No
2018/09/25,22:20,0.296,0.185,0.297,0.287,0.278,0.146,0.092,north,9.2,No
2018/09/25,22:30,0.297,0.185,0.295,0.285,0.277,0.147,0.091,north-northwest,9.5,No
2018/09/25,22:40,0.297,0.183,0.296,0.287,0.276,0.147,0.091,north-northwest,8.8,No
2018/09/25,22:50,0.296,0.185,0.295,0.285,0.276,0.147,0.091,north-northwest,8.8,No
2018/09/25,23:00,0.295,0.184,0.298,0.287,0.277,0.146,0.091,north-northwest,8.5,No
2018/09/25,23:10,0.296,0.184,0.296,0.285,0.277,0.146,0.091,north-northwest,10.4,No
2018/09/25,23:20,0.298,0.183,0.297,0.288,0.278,0.146,0.092,north-northwest,10.1,No
2018/09/25,23:30,0.296,0.184,0.296,0.286,0.276,0.147,0.091,north-northwest,10.0,No
2018/09/25,23:40,0.297,0.184,0.297,0.287,0.278,0.146,0.093,north-northwest,9.5,No
2018/09/25,23:50,0.295,0.185,0.296,0.287,0.277,0.147,0.091,north-northwest,9.5,No
